User: anonymous   Login
Location: Melbourne
(37.8170°S, 144.9670°E)
Time: 19:48:22
(UTC+10:00)
Language:

CZ-3 R/B - Orbit

View from above orbital plane
View from above orbital plane
View from above satellite
View from above satellite

Ground track
Ground track

The orbit data is extracted from the following two-line orbital elements,

1 29517U 06048B   15212.78403124  .00139822  50511-6  14162-2 0  9991
2 29517 028.4705 112.3374 4853536 004.0076 013.1608 06.03109458122442
Epoch (UTC): 31 July 2015 18:49:00
Eccentricity: 0.4853536
inclination: 28.4705°
perigee height: 183 km
apogee height: 12558 km
right ascension of ascending node: 112.3374°
argument of perigee: 4.0076°
revolutions per day: 6.03109458
mean anomaly at epoch: 13.1608°
orbit number at epoch: 12244

The dashed part of the orbit path shows where the satellite is in the earth's shadow,  

DLR